Regional Weather Roundup
Issued by NWS Sterling, VA

Home | Current Version | Previous Version | Graphics & Text | Print | Product List | Glossary On
Versions: 1 2 3 4 5 6 7 8 9 10 11 12 13 14 15 16 17 18 19 20 21 22 23 24 25 26 27 28 29 30 31 32 33 34 35 36 37 38 39 40 41 42 43 44 45 46 47 48 49 50
000
ASUS41 KLWX 250511
RWRLWX

REGIONAL WEATHER ROUNDUP
NATIONAL WEATHER SERVICE BALTIMORE MD/WASHINGTON DC
1200 AM EST SAT NOV 25 2017

Note: "FAIR" indicates few or no clouds below 12,000 feet
with no significant weather and/or obstructions to visibility.
 TC=TEMPERATURE CELSIUS

 * =Non NWS site. Station does not report precipitation (e.g. rain,
    snow, etc.), thunder, or fog.

DCZ001-MDZ009-015-VAZ040>042-051-053>054-250600-
WASHINGTON METRO

CITY           SKY/WX    TMP DP  RH WIND       PRES   REMARKS
WASHINGTON NAT CLEAR     41  34  76 SW3       29.94F
DULLES         CLEAR     32  29  88 SE5       29.92F
ANDREWS AFB    CLEAR     34  28  78 S6        29.92F
FT BELVOIR     CLEAR     31  28  89 CALM      29.94F
QUANTICO       CLEAR     37  33  85 W5        29.96S
COLLEGE PARK*  CLEAR     32  28  86 CALM      29.94S
LEESBURG*      CLEAR     41  32  70 S9        29.92F
MANASSAS*      CLEAR     28  25  88 CALM      29.93F
GAITHERSBURG*  CLEAR     38  30  73 S6        29.92F

$$

MDZ006>007-011-014-250600-
BALTIMORE METRO

CITY           SKY/WX    TMP DP  RH WIND       PRES   REMARKS
BWI AIRPORT    CLEAR     34  30  85 CALM      29.94S
MD SCIENCE CTR   N/A     42  32  67 MISG      29.94F
MARTIN STATE   CLEAR     34  32  93 CALM      29.96S
ANNAPOLIS      CLEAR     43  35  73 CALM      29.94F
FORT MEADE*    CLEAR     30  28  93 CALM      29.96F

$$

MDZ012-015-019>023-250600-
MARYLAND EASTERN SHORE

CITY           SKY/WX    TMP DP  RH WIND       PRES   REMARKS
OCEAN CITY     CLEAR     32  32 100 CALM      29.95F
SALISBURY      CLEAR     32  30  92 CALM      29.95F
CAMBRIDGE*     CLEAR     34  32  93 CALM      29.95F
EASTON*        CLEAR     38  33  85 CALM      29.98F

$$

MDZ017>025-250600-
SOUTHERN MARYLAND

CITY           SKY/WX    TMP DP  RH WIND       PRES   REMARKS
PATUXENT RIVER CLEAR     39  34  82 S6        29.94F
ST INIGOES     CLEAR     36  34  92 CALM      29.94F
LEONARDTOWN*   CLEAR     36  34  93 CALM      29.96F

$$

MDZ003>005-250600-
NORTH CENTRAL MARYLAND

CITY           SKY/WX    TMP DP  RH WIND       PRES   REMARKS
FREDERICK*     CLEAR     32  27  80 CALM      29.94F
HAGERSTOWN APT CLOUDY    40  28  62 S5        29.87F
WESTMINSTER*   CLEAR     43  30  61 S8G17     29.89F

$$

MDZ501>502-250600-
WESTERN MARYLAND

CITY           SKY/WX    TMP DP  RH WIND       PRES   REMARKS
OAKLAND*       CLOUDY    43  21  42 SW10      29.79F
CUMBERLAND*    CLEAR     32  27  80 CALM      29.91S

$$

VAZ025>031-250600-
SHENANDOAH VALLEY

CITY           SKY/WX    TMP DP  RH WIND       PRES   REMARKS
WINCHESTER*    CLEAR     37  27  65 SW5       29.87F
FRONT ROYAL*   CLEAR     36  28  75 MISG      29.87F
LURAY*         CLEAR     32  28  86 S3        29.89S
NEW MARKET*    CLEAR     30  24  79 CALM      29.88S
STAUNTON*      CLOUDY    34  24  68 CALM      29.92S
WAYNESBORO*    CLEAR     34  24  68 CALM      29.90F

$$

WVZ021-048>050-054>055-250600-
EASTERN WEST VIRGINIA PANHANDLE

CITY           SKY/WX    TMP DP  RH WIND       PRES   REMARKS
MARTINSBURG    CLEAR     28  23  81 CALM      29.87F
PETERSBURG*    CLEAR     27  24  89 CALM      29.87F

$$

VAZ036>039-050-250600-
CENTRAL FOOTHILLS

CITY           SKY/WX    TMP DP  RH WIND       PRES   REMARKS
CHARLOTTESVILL CLEAR     39  29  67 W3        29.91F
CULPEPER*      CLEAR     31  26  83 CALM      29.93F
ORANGE*        CLEAR     32  27  80 CALM      29.92F
GORDONSVILLE*  CLEAR     32  29  89 CALM      29.92F
WARRENTON*     NOT AVBL

$$

VAZ055>057-250600-
NORTH AND CENTRAL PIEDMONT

CITY           SKY/WX    TMP DP  RH WIND       PRES   REMARKS
FREDERICKSBRG* CLEAR     33  29  88 CALM      29.94S
STAFFORD*      CLEAR     30  29  94 CALM      29.98S

$$

NCZ024-NYZ072-PAZ021-071-VAZ022-071-250600-
OTHER REGIONAL OBSERVATIONS

CITY           SKY/WX    TMP DP  RH WIND       PRES   REMARKS
NEW YORK CITY  CLEAR     44  26  49 W7        29.95F
PHILADELPHIA   CLEAR     39  32  76 W7        29.96S
PITTSBURGH     CLOUDY    43  21  41 S8        29.75F
ROANOKE        CLOUDY    35  28  75 NW5       29.95F
RICHMOND       CLEAR     34  31  88 CALM      29.95F
RALEIGH        PTCLDY    31  27  85 CALM      29.97S

$$

ANZ530>537-250600-
MARINE OBSERVATIONS

STATION/POSITION TIME  TEMP    WIND        PRES
                       AIR SEA DIR/SP/G
                 (UTC) (F)     (DEG/KT/KT) (MB)
THOMAS PT LIGHT  0500   47 51  210/ 12/ 13   N/A
BALT KEY BRIDGE  0442   43     240/  2/  3 1014.1R
COVE POINT       0442   45     210/  8/  9 1014.5F
LEWISETTA        0442   41 48  230/  3/  3 1014.1F
SOLOMONS ISLAND  0442   44 53  230/  6/  7 1013.7F
PINEY POINT      0448          210/  6/  6   N/A

$$




USA.gov is the U.S. government's official web portal to all federal, state and local government web resources and services.